Location: Krakow
(50.0830°N, 19.9170°E)
Time: 15:05:00
(UTC+01:00)

Tiangong - Visible Passes

Search period start: 08 December 2022 00:00
Search period end: 18 December 2022 00:00
Orbit: 386 x 392 km, 41.5° (Epoch: 08 December)

Date Brightness Start Highest point End Pass type
(mag) Time Alt. Az. Time Alt. Az. Time Alt. Az.
08 Dec 0.5 16:49:00 10° SW 16:51:10 17° S 16:53:19 10° SE visible
09 Dec 0.8 17:28:03 10° SW 17:29:21 12° SSW 17:30:39 10° S visible
10 Dec 0.8 16:29:28 10° SW 16:31:20 15° SSW 16:33:12 10° SSE visible
